[[{"header":{"parameterUnit":"m.s-1","parameterCategory":1,"la1":30.2991,"la2":30.254,"lo1":-89.0895,"lo2":-89.0444,"dy":0.0017,"dx":0.0017,"nx":28,"ny":28,"refTime":"2023-08-22T09:00:00:Z","depth":0,"parameterNumber":2,"parameterNumberName":"U-component_of_WINDS"},"data":[0,0,0,0,0,0,0,0,0,0,0,0,0,0,0,0,0,0,0,0,0,0,0,0,0,0,0,0,0,0,0,0,0,0,0,0,0,0,0,0,0,0,0,0,0,0,0,0,0,0,0,0,0,0,0,0,0,0,-5.3612,-5.3612,0,-5.3614,-5.3614,-5.3614,-5.3484,-5.3481,-5.3477,-5.3474,-5.3475,-5.3478,-5.3482,0,0,0,0,0,0,0,0,0,0,0,0,0,-5.3493,-5.3496,-5.3612,-5.3612,-5.3612,-5.3614,-5.3614,-5.3614,-5.3485,-5.348,-5.3476,-5.3472,-5.3474,-5.3478,-5.3482,0,0,0,0,0,0,0,0,0,0,0,0,0,-5.3525,-5.3497,-5.3612,-5.3547,-5.3542,-5.3614,-5.3614,-5.3614,-5.3485,-5.348,-5.3475,-5.347,-5.3473,-5.3478,-5.3483,-5.3616,0,0,-5.3497,-5.35,0,0,0,0,0,0,0,0,-5.3523,-5.3529,-5.3557,-5.3552,-5.3546,-5.3543,-5.3573,-5.3615,-5.3487,-5.3507,-5.3474,-5.3468,-5.3502,-5.3504,-5.3516,-5.3616,-5.3616,-5.3498,-5.3501,-5.3503,-5.3504,0,0,0,0,0,0,0,-5.3521,-5.3529,-5.3612,-5.3557,-5.3551,-5.3518,-5.3517,-5.358,-5.3533,-5.3505,-5.3495,-5.3497,-5.3498,-5.3512,-5.3515,-5.3616,-5.3498,-5.3502,-5.3505,-5.3507,-5.3823,-5.3829,0,0,0,0,0,0,-5.3528,-5.3528,-5.3612,-5.3612,-5.3522,-5.3524,-5.3523,-5.3549,-5.3532,-5.3525,-5.3502,-5.3491,-5.3506,-5.351,-5.3515,-5.3667,-5.3503,-5.3507,-5.351,-5.3818,-5.3825,-5.3831,0,0,0,0,0,0,-5.3526,-5.3537,-5.3612,-5.3568,-5.3575,-5.3532,-5.3562,-5.3552,-5.3565,-5.353,-5.3521,-5.3524,-5.3502,-5.3508,-5.3591,-5.3665,-5.351,-5.3514,-5.3812,-5.382,-5.3828,-5.3975,0,0,0,0,0,0,-5.3523,-5.3537,-5.3588,-5.357,-5.3578,-5.369,-5.3567,-5.3556,-5.3574,-5.3561,-5.3549,-5.3542,-5.3498,-5.3585,-5.3596,-5.3669,-5.3518,-5.3805,-5.3815,-5.3825,-5.3963,-5.3987,-5.4008,0,0,0,0,0,-5.3519,-5.3629,-5.3591,-5.3602,-5.364,-5.3694,-5.3698,-5.3646,-5.3581,-5.3631,-5.3608,-5.3542,-5.3657,-5.3594,-5.3606,-5.3682,-5.38,-5.3812,-5.3824,-5.3953,-5.3983,-5.4007,0,0,0,0,0,0,-5.3657,-5.3626,-5.3583,-5.369,-5.3696,-5.3672,-5.3733,-5.368,-5.3704,-5.369,-5.3624,-5.3622,-5.3716,-5.3708,-5.3639,-5.3809,-5.3716,-5.3732,-5.381,-5.3838,-5.386,-5.3858,-5.3522,0,0,0,0,0,-5.37,-5.3747,-5.3717,-5.3815,-5.382,-5.3777,-5.3798,-5.3758,-5.3761,-5.3762,-5.3746,-5.3751,-5.3787,-5.3813,-5.3845,-5.3963,-5.3957,-5.4021,-5.4043,-5.4062,-5.4074,-5.4134,-5.4161,-5.3871,-5.3871,-5.3871,0,0,-5.3788,-5.3777,-5.3811,-5.3842,-5.3841,-5.389,-5.3779,-5.3837,-5.3872,-5.3771,-5.3847,-5.3836,-5.3838,-5.3938,-5.3982,-5.3934,-5.4154,-5.4077,-5.4092,-5.4095,-5.4149,-5.4177,-5.4201,-5.388,-5.3878,-5.3877,0,0,-5.3974,-5.3972,-5.4051,-5.4053,-5.4054,-5.4025,-5.4045,-5.4029,-5.4017,-5.4094,-5.4019,-5.406,-5.4126,-5.4129,-5.4139,-5.4327,-5.4266,-5.434,-5.4454,-5.4513,-5.4536,-5.4555,-5.4619,-5.4644,-5.4353,-5.4354,-5.4354,0,-5.4084,-5.4155,-5.4099,-5.4161,-5.4176,-5.4088,-5.4167,-5.4172,-5.4183,-5.4195,-5.4143,-5.4221,-5.4217,-5.4315,-5.4361,-5.4374,-5.4392,-5.4338,-5.4537,-5.4556,-5.4574,-5.4634,-5.4659,-5.4362,-5.4361,-5.436,-5.436,0,-5.4288,-5.4339,-5.4403,-5.4416,-5.4439,-5.4509,-5.4463,-5.4493,-5.4452,-5.4428,-5.4506,-5.4497,-5.4525,-5.4546,-5.4506,-5.464,-5.4609,-5.4549,-5.4453,-5.4611,-5.4666,-5.4689,-5.4375,-5.4371,-5.4369,-5.4367,0,0,-5.4558,-5.4539,-5.4563,-5.4567,-5.4562,-5.46,-5.4666,-5.4693,-5.4719,-5.4731,-5.4783,-5.4841,-5.4783,-5.4795,-5.4755,-5.4808,-5.4953,-5.4739,-5.4738,-5.4776,-5.5096,-5.514,-5.5167,-5.4915,-5.4919,-5.4923,-5.5095,0,-5.4735,-5.4846,-5.4798,-5.4914,-5.4959,-5.4876,-5.4934,-5.4937,-5.4917,-5.4951,-5.4929,-5.497,-5.4893,-5.4899,-5.4948,-5.4925,-5.5016,-5.4913,-5.4961,-5.4963,-5.4959,-5.5197,-5.5243,-5.5406,-5.5117,-5.512,-5.5123,0,-5.4956,-5.4976,-5.5096,-5.5081,-5.5098,-5.5151,-5.5171,-5.5206,-5.5207,-5.5189,-5.5203,-5.5151,-5.5214,-5.5123,-5.5207,-5.5138,-5.5156,-5.5148,-5.5153,-5.5152,-5.505,-5.5199,-5.5457,-5.548,-5.5157,-5.5154,-5.5152,0,-5.5136,-5.5194,-5.5272,-5.5278,-5.5264,-5.5303,-5.5299,-5.5295,-5.5314,-5.5332,-5.5343,-5.537,-5.5383,-5.5404,-5.536,-5.5298,-5.545,-5.5356,-5.5435,-5.5436,-5.5467,-5.5465,-5.5728,-5.5486,-5.5485,-5.5485,-5.5484,0,-5.5337,-5.5413,-5.5352,-5.54,-5.5483,-5.5427,-5.551,-5.5497,-5.5495,-5.5538,-5.547,-5.5512,-5.5453,-5.549,-5.5456,-5.553,-5.5538,-5.5523,-5.5513,-5.5527,-5.5529,-5.5535,-5.5521,-5.5491,-5.549,-5.5489,-5.5488,0,-5.555,-5.5513,-5.5593,-5.5573,-5.557,-5.5631,-5.5614,-5.5657,-5.5633,-5.5689,-5.5699,-5.5661,-5.57,-5.5659,-5.5696,-5.5674,-5.5772,-5.5747,-5.5771,-5.5762,-5.5843,-5.5834,-5.6116,-5.6148,-5.5889,-5.5891,-5.5893,0,-5.5679,-5.5735,-5.5721,-5.5745,-5.5745,-5.5785,-5.5804,-5.5752,-5.5775,-5.578,-5.5823,-5.5856,-5.588,-5.5946,-5.5922,-5.5949,-5.5922,-5.6019,-5.5925,-5.5937,-5.5919,-5.5915,-5.5919,-5.6036,-5.6039,-5.6042,-5.6044,0,-5.591,-5.5889,-5.5918,-5.5942,-5.5966,-5.5983,-5.5994,-5.6017,-5.5964,-5.5992,-5.6031,-5.605,-5.6087,-5.612,-5.6141,-5.6136,-5.6081,-5.6074,-5.6093,-5.6107,-5.6117,-5.6109,-5.5819,-5.6067,-5.6065,-5.6063,-5.6062,-5.6061,-5.6082,-5.6127,-5.6124,-5.6159,-5.6162,-5.6174,-5.6213,-5.6194,-5.6225,-5.6251,-5.6219,-5.6267,-5.6266,-5.6287,-5.6289,-5.6325,-5.6284,-5.6313,-5.6319,-5.6326,-5.6336,-5.6115,-5.6329,-5.6329,-5.6328,-5.6327,-5.6327,0,-5.6306,-5.63,-5.6334,-5.635,-5.6378,-5.6325,-5.6335,-5.6361,-5.6403,-5.6407,-5.6432,-5.6476,-5.6509,-5.6487,-5.6514,-5.6547,-5.6523,-5.6556,-5.6551,-5.655,-5.6373,-5.6352,-5.6575,-5.6575,-5.6575,-5.6575,-5.6575,-5.6575,-5.6426,-5.6499,-5.6477,-5.6551,-5.6544,-5.659,-5.6599,-5.6609,-5.6612,-5.6664,-5.669,-5.6677,-5.667,-5.6696,-5.6723,-5.6716,-5.6727,-5.6769,-5.6753,-5.6587,-5.6563,-5.6539,-5.6519,-5.6773,-5.6773,-5.6926,-5.6927,-5.6928]},{"header":{"parameterUnit":"m.s-1","parameterCategory":1,"la1":30.2991,"la2":30.254,"lo1":-89.0895,"lo2":-89.0444,"dy":0.0017,"dx":0.0017,"nx":28,"ny":28,"refTime":"2023-08-22T09:00:00:Z","depth":0,"parameterNumber":3,"parameterNumberName":"V-component_of_WINDS"},"data":[0,0,0,0,0,0,0,0,0,0,0,0,0,0,0,0,0,0,0,0,0,0,0,0,0,0,0,0,0,0,0,0,0,0,0,0,0,0,0,0,0,0,0,0,0,0,0,0,0,0,0,0,0,0,0,0,0,0,1.9334,1.9334,0,1.9347,1.9347,1.9347,1.9328,1.9327,1.9327,1.9326,1.9337,1.9338,1.9339,0,0,0,0,0,0,0,0,0,0,0,0,0,1.9292,1.9292,1.9334,1.9334,1.9334,1.9347,1.9347,1.9347,1.9328,1.9327,1.9326,1.9326,1.9337,1.9338,1.9339,0,0,0,0,0,0,0,0,0,0,0,0,0,1.9308,1.9293,1.9334,1.9326,1.9326,1.9347,1.9347,1.9348,1.9328,1.9327,1.9326,1.9325,1.9337,1.9338,1.9339,1.9368,0,0,1.9344,1.9344,0,0,0,0,0,0,0,0,1.9307,1.9309,1.9327,1.9327,1.9326,1.9335,1.9337,1.9354,1.9328,1.9327,1.9326,1.9325,1.9337,1.9339,1.9343,1.9369,1.9369,1.9344,1.9345,1.9345,1.9346,0,0,0,0,0,0,0,1.9306,1.9309,1.9339,1.9328,1.9327,1.9322,1.9323,1.934,1.9338,1.9327,1.9326,1.9328,1.9337,1.9342,1.9343,1.937,1.9344,1.9345,1.9346,1.9346,1.942,1.9421,0,0,0,0,0,0,1.9306,1.9308,1.9339,1.934,1.9314,1.9324,1.9325,1.9333,1.9337,1.9337,1.9329,1.9327,1.934,1.9342,1.9344,1.9377,1.9345,1.9347,1.9347,1.9419,1.9421,1.9422,0,0,0,0,0,0,1.9305,1.9309,1.9338,1.9323,1.9327,1.9325,1.9335,1.9334,1.9339,1.9339,1.9338,1.9334,1.9339,1.9342,1.9363,1.9377,1.9347,1.9349,1.9418,1.942,1.9421,1.9445,0,0,0,0,0,0,1.9304,1.9309,1.9319,1.9324,1.9328,1.9357,1.9336,1.9335,1.9342,1.9339,1.9344,1.9343,1.9339,1.9361,1.9364,1.9379,1.935,1.9417,1.9419,1.9421,1.9443,1.9448,1.9451,0,0,0,0,0,1.9302,1.9325,1.932,1.9324,1.9341,1.9358,1.936,1.9355,1.9343,1.9354,1.9354,1.9343,1.9376,1.9363,1.9367,1.9382,1.9415,1.9418,1.9421,1.9441,1.9447,1.9451,0,0,0,0,0,0,1.9321,1.9325,1.932,1.9345,1.9351,1.9355,1.9368,1.9361,1.937,1.9367,1.936,1.9361,1.9384,1.9385,1.9371,1.9411,1.9394,1.9397,1.9408,1.9413,1.9418,1.9415,1.9351,0,0,0,0,0,1.9328,1.9342,1.9345,1.9367,1.937,1.9369,1.9376,1.9372,1.9378,1.938,1.9382,1.9388,1.9399,1.9407,1.9418,1.9444,1.9445,1.9457,1.9461,1.9465,1.9467,1.9481,1.9486,1.943,1.943,1.943,0,0,1.9342,1.9347,1.9355,1.937,1.9375,1.9389,1.9371,1.9386,1.9396,1.9382,1.9402,1.9404,1.941,1.9434,1.9445,1.9436,1.9483,1.9468,1.9471,1.9471,1.9484,1.9489,1.9494,1.9432,1.9432,1.9431,0,0,1.9375,1.9381,1.9399,1.9405,1.9413,1.9412,1.9417,1.9422,1.9423,1.9443,1.9433,1.9445,1.9465,1.947,1.9475,1.9514,1.9504,1.9518,1.9538,1.9552,1.9556,1.956,1.9573,1.9577,1.952,1.952,1.952,0,1.9392,1.9413,1.9409,1.9426,1.9433,1.9423,1.9441,1.9447,1.9457,1.9462,1.9453,1.9479,1.9483,1.9508,1.9517,1.9522,1.9527,1.9515,1.9556,1.956,1.9564,1.9575,1.958,1.9522,1.9522,1.9522,1.9521,0,1.9432,1.9447,1.9462,1.9473,1.9482,1.95,1.9499,1.9508,1.9504,1.9505,1.9526,1.953,1.9542,1.9548,1.9544,1.9573,1.9567,1.9558,1.954,1.957,1.9581,1.9586,1.9524,1.9523,1.9523,1.9523,0,0,1.9473,1.9486,1.9491,1.9496,1.9506,1.9517,1.9535,1.9547,1.9555,1.9564,1.9578,1.9597,1.9588,1.9594,1.9591,1.9603,1.9632,1.9592,1.9592,1.9598,1.9664,1.967,1.9675,1.9628,1.9628,1.9629,1.9663,0,1.9505,1.9536,1.9535,1.9564,1.9577,1.957,1.9585,1.9592,1.9594,1.9606,1.9608,1.962,1.9609,1.9613,1.9625,1.9626,1.9645,1.9624,1.9639,1.964,1.9635,1.9681,1.9686,1.9718,1.9667,1.9668,1.9669,0,1.9546,1.9557,1.9587,1.9596,1.9602,1.9616,1.9628,1.9639,1.9648,1.9648,1.9657,1.9652,1.9669,1.9654,1.9678,1.9664,1.967,1.9672,1.9673,1.9672,1.9654,1.9679,1.9728,1.9732,1.9675,1.9675,1.9674,0,1.9571,1.9594,1.9616,1.9621,1.9632,1.9642,1.9647,1.9655,1.9663,1.9673,1.9678,1.9691,1.9697,1.9707,1.9706,1.9695,1.973,1.9714,1.973,1.973,1.9735,1.9734,1.9783,1.9743,1.9743,1.9743,1.9743,0,1.9605,1.9624,1.9627,1.964,1.9661,1.966,1.9681,1.9684,1.9692,1.9705,1.97,1.9712,1.9711,1.9723,1.9723,1.9742,1.9746,1.9746,1.9745,1.9745,1.9744,1.9747,1.9744,1.9744,1.9744,1.9744,1.9744,0,1.9636,1.9639,1.9662,1.9671,1.9674,1.9689,1.9697,1.9709,1.9712,1.9728,1.9732,1.9736,1.975,1.9751,1.9767,1.9767,1.9791,1.9788,1.9788,1.9786,1.9801,1.9799,1.9852,1.9858,1.9816,1.9816,1.9816,0,1.9656,1.9671,1.9683,1.9692,1.9698,1.9712,1.9721,1.9722,1.9731,1.9743,1.9754,1.9768,1.9779,1.9803,1.9807,1.982,1.9816,1.9834,1.9818,1.9818,1.9815,1.9813,1.9814,1.9836,1.9837,1.9837,1.9837,0,1.9692,1.9694,1.9707,1.9721,1.9733,1.9744,1.9754,1.9762,1.9764,1.9774,1.979,1.9799,1.9817,1.9831,1.9844,1.9849,1.9843,1.9843,1.9847,1.9846,1.9844,1.9844,1.9794,1.9841,1.9841,1.984,1.984,1.984,1.9717,1.9729,1.974,1.9756,1.9764,1.9775,1.9787,1.9792,1.9805,1.982,1.982,1.9837,1.9847,1.9864,1.987,1.9883,1.9876,1.9882,1.9883,1.9884,1.9885,1.9845,1.9885,1.9885,1.9885,1.9885,1.9885,0,1.9751,1.9758,1.9773,1.9788,1.9801,1.9797,1.9809,1.9819,1.9834,1.9844,1.9857,1.9875,1.9889,1.9895,1.9909,1.9918,1.9916,1.9921,1.9919,1.992,1.9891,1.9885,1.9923,1.9923,1.9923,1.9923,1.9923,1.9923,1.977,1.9791,1.9794,1.982,1.9827,1.9844,1.9851,1.9861,1.9869,1.989,1.9902,1.9907,1.9915,1.993,1.9943,1.9944,1.9949,1.9955,1.9955,1.9927,1.9923,1.9919,1.9913,1.9957,1.9957,1.9983,1.9984,1.9984]}]]